Date,TemperatureHighF,TemperatureAvgF,TemperatureLowF,DewpointHighF,DewpointAvgF,DewpointLowF,HumidityHigh,HumidityAvg,HumidityLow,PressureMaxIn,PressureMinIn,WindSpeedMaxMPH,WindSpeedAvgMPH,GustSpeedMaxMPH,PrecipitationSumIn
2013-2-1,16.0,14.0,12.0,16.0,13.9,12.0,100,100,96,30.19,29.88,17,8,0,0.72
2013-2-2,16.0,12.3,1.0,16.0,11.2,0.0,100,95,81,30.11,29.97,11,4,0,0.72
2013-2-3,18.0,12.9,2.0,18.0,12.8,2.0,100,99,91,29.98,29.84,14,4,0,0.72
2013-2-4,20.0,15.4,6.0,18.0,14.6,5.0,100,97,85,29.98,29.86,9,2,0,0.72
2013-2-5,29.0,18.1,5.0,29.0,18.0,5.0,100,99,94,29.98,29.72,17,6,0,0.72
2013-2-6,31.0,22.8,10.0,27.0,21.2,10.0,100,94,79,30.24,29.99,10,3,0,0.72
2013-2-7,31.0,28.8,26.0,31.0,28.3,26.0,100,98,88,30.19,29.87,13,-6,0,0.72
2013-2-8,30.0,25.5,14.0,29.0,24.6,13.0,100,96,79,30.35,29.87,20,11,0,0.63
2013-2-9,31.0,15.7,0.0,24.0,13.9,0.0,100,93,73,30.40,30.18,14,3,0,0.69
2013-2-10,40.0,26.9,16.0,40.0,26.5,16.0,100,98,90,30.18,29.55,15,4,0,0.69
2013-2-11,43.0,35.5,30.0,43.0,34.8,28.0,100,97,89,29.86,29.47,16,7,0,0.72
2013-2-12,30.0,28.0,26.0,28.0,26.5,25.0,98,94,91,30.02,29.85,16,6,0,0.72
2013-2-13,36.0,29.6,21.0,34.0,29.3,21.0,100,98,92,29.90,29.70,14,3,0,0.72
2013-2-14,38.0,32.0,26.0,38.0,31.9,26.0,100,100,95,29.89,29.58,18,6,0,0.72
2013-2-15,27.0,23.5,19.0,26.0,20.5,18.0,100,88,73,30.12,29.89,14,5,0,0.72
2013-2-16,23.0,17.6,11.0,19.0,16.3,11.0,100,95,71,30.09,30.00,12,6,0,0.72
2013-2-17,23.0,13.3,3.0,16.0,10.4,3.0,100,88,69,30.17,30.08,10,4,0,0.72
2013-2-18,44.0,31.8,18.0,43.0,26.4,15.0,100,81,68,30.09,29.41,23,12,0,0.72
2013-2-19,43.0,24.6,16.0,43.0,24.6,16.0,100,100,100,29.94,29.34,20,12,0,0.72
2013-2-20,22.0,18.5,15.0,21.0,17.2,14.0,100,95,86,30.27,29.95,22,6,0,0.72
2013-2-21,24.0,21.6,18.0,22.0,20.0,17.0,98,93,86,30.36,30.17,16,11,0,0.72
2013-2-22,32.0,25.2,19.0,32.0,25.1,18.0,100,100,97,30.17,29.82,18,2,0,0.72
2013-2-23,32.0,28.8,26.0,32.0,28.6,26.0,100,99,89,29.88,29.80,11,5,0,0.72
2013-2-24,36.0,30.1,22.0,32.0,28.3,21.0,100,93,74,30.12,29.86,13,4,0,0.72
2013-2-25,38.0,23.9,12.0,34.0,21.4,12.0,100,91,69,30.19,30.07,9,2,0,0.66
2013-2-26,36.0,31.1,27.0,33.0,28.5,25.0,100,90,77,30.10,29.55,29,18,0,0.72
2013-2-27,35.0,33.7,32.0,35.0,33.7,32.0,100,100,100,29.61,29.48,14,4,0,0.72
2013-2-28,35.0,32.9,29.0,35.0,32.0,27.0,100,97,92,30.00,29.61,17,13,0,0.72